Manning, SC

2:36 AM EDT on September 20, 2019 (GMT -0400)
Santee Cooper Regional

Weather History for KMNI - August, 2019

Change the Weather History Date:

Tuesday, August 20, 2019

  Actual Average (KCKI) Record (KCKI)
Temperature  
Mean Temperature 81 °F -  
Max Temperature 89 °F 90 °F 95 °F (2014)
Min Temperature 73 °F 67 °F 69 °F (2011)
Cooling Degree Days 16    
Growing Degree Days 31 (Base 50)    
Moisture  
Dew Point 72 °F    
Average Humidity 75    
Maximum Humidity 94    
Minimum Humidity 52    
Precipitation  
Precipitation 0.00 in - - ()
Sea Level Pressure  
Sea Level Pressure 30.11 in    
Wind  
Wind Speed 4 mph (SSW)    
Max Wind Speed 9 mph    
Max Gust Speed -    
Visibility 10 miles    
Events      
Averages and records for this station are not official NWS values.
T = Trace of Precipitation, MM = Missing Value Source: NWS Daily Summary

Daily Weather History Graph

Daily Weather History Graph

Search for Another Location

Airport or City:

Astronomy

Aug. 20, 2019 Rise Set
Actual Time 6:46 AM EDT 8:01 PM EDT
Civil Twilight 6:20 AM EDT 8:27 PM EDT
Nautical Twilight 5:49 AM EDT 8:58 PM EDT
Astronomical Twilight 5:17 AM EDT 9:30 PM EDT
Moon 11:03 PM EDT 11:10 AM EDT
Length of Visible Light 14h 07m
Length of Day
13h 15m
Waning Gibbous, 78% of the Moon is Illuminated
Aug 20
Waning Gibbous
Aug 23
Last Quarter
Aug 30
New
Sep 5
First Quarter
Sep 14
Full

Hourly Weather History & Observations

Time (EDT) Temp. Heat Index Dew Point Humidity Pressure Visibility Wind Dir Wind Speed Gust Speed Precip Events Conditions
12:15 AM 78.8 °F - 73.4 °F 83% 30.10 in 10.0 mi SSW 8.1 mph - N/A   Clear
12:35 AM 78.8 °F - 73.4 °F 83% 30.10 in 10.0 mi WSW 4.6 mph - N/A   Clear
12:55 AM 78.8 °F - 73.4 °F 83% 30.10 in 10.0 mi Calm Calm - N/A   Clear
1:15 AM 78.8 °F - 73.4 °F 83% 30.10 in 10.0 mi SW 3.5 mph - N/A   Clear
1:35 AM 77.0 °F - 73.4 °F 89% 30.10 in 10.0 mi WSW 3.5 mph - N/A   Clear
1:55 AM 77.0 °F - 73.4 °F 89% 30.10 in 10.0 mi Calm Calm - N/A   Clear
2:15 AM 77.0 °F - 73.4 °F 89% 30.10 in 10.0 mi WSW 3.5 mph - N/A   Clear
2:35 AM 77.0 °F - 73.4 °F 89% 30.10 in 10.0 mi Calm Calm - N/A   Clear
2:55 AM 77.0 °F - 73.4 °F 89% 30.10 in 10.0 mi SW 3.5 mph - N/A   Clear
3:15 AM 77.0 °F - 73.4 °F 89% 30.10 in 10.0 mi SSW 3.5 mph - N/A   Scattered Clouds
3:35 AM 77.0 °F - 73.4 °F 89% 30.10 in 10.0 mi SW 5.8 mph - N/A   Clear
3:55 AM 77.0 °F - 73.4 °F 89% 30.10 in 10.0 mi SW 6.9 mph - N/A   Clear
4:15 AM 77.0 °F - 73.4 °F 89% 30.10 in 10.0 mi WSW 4.6 mph - N/A   Clear
4:35 AM 77.0 °F - 73.4 °F 89% 30.10 in 10.0 mi SW 5.8 mph - N/A   Clear
4:55 AM 77.0 °F - 73.4 °F 89% 30.10 in 10.0 mi SW 4.6 mph - N/A   Clear
5:15 AM 77.0 °F - 73.4 °F 89% 30.10 in 10.0 mi SW 3.5 mph - N/A   Clear
5:35 AM 77.0 °F - 73.4 °F 89% 30.10 in 10.0 mi SW 3.5 mph - N/A   Clear
5:55 AM 77.0 °F - 71.6 °F 83% 30.11 in 10.0 mi WSW 3.5 mph - N/A   Clear
6:15 AM 77.0 °F - 71.6 °F 83% 30.11 in 10.0 mi Calm Calm - N/A   Clear
6:35 AM 73.4 °F - 71.6 °F 94% 30.11 in 10.0 mi Calm Calm - N/A   Clear
7:15 AM 73.4 °F - 71.6 °F 94% 30.12 in 10.0 mi Calm Calm - N/A   Clear
7:35 AM 73.4 °F - 71.6 °F 94% 30.13 in 10.0 mi Calm Calm - N/A   Clear
7:55 AM 73.4 °F - 71.6 °F 94% 30.13 in 10.0 mi Calm Calm - N/A   Clear
8:35 AM 78.8 °F - 71.6 °F 78% 30.14 in 10.0 mi Calm Calm - N/A   Clear
8:55 AM 78.8 °F - 71.6 °F 78% 30.15 in 10.0 mi Calm Calm - N/A   Clear
9:15 AM 80.6 °F 85.4 °F 73.4 °F 79% 30.15 in 10.0 mi Calm Calm - N/A   Clear
9:35 AM 80.6 °F 85.4 °F 73.4 °F 79% 30.15 in 10.0 mi SW 3.5 mph - N/A   Scattered Clouds
9:55 AM 80.6 °F 85.4 °F 73.4 °F 79% 30.15 in 10.0 mi SW 5.8 mph - N/A   Mostly Cloudy
10:35 AM 82.4 °F 88.2 °F 73.4 °F 74% 30.15 in 10.0 mi SSW 4.6 mph - N/A   Mostly Cloudy
10:55 AM 82.4 °F 88.2 °F 73.4 °F 74% 30.15 in 10.0 mi SSW 4.6 mph - N/A   Mostly Cloudy
11:15 AM 82.4 °F 88.2 °F 73.4 °F 74% 30.15 in 10.0 mi SSW 5.8 mph - N/A   Scattered Clouds
11:35 AM 82.4 °F 88.2 °F 73.4 °F 74% 30.15 in 10.0 mi SW 6.9 mph - N/A   Clear
11:55 AM 84.2 °F 89.6 °F 71.6 °F 66% 30.15 in 10.0 mi SSW 6.9 mph - N/A   Clear
12:15 PM 84.2 °F 89.6 °F 71.6 °F 66% 30.15 in 10.0 mi SSW 5.8 mph - N/A   Clear
12:35 PM 86.0 °F 91.8 °F 71.6 °F 62% 30.14 in 10.0 mi SW 5.8 mph - N/A   Clear
12:55 PM 86.0 °F 91.8 °F 71.6 °F 62% 30.14 in 10.0 mi SW 8.1 mph - N/A   Clear
1:15 PM 87.8 °F 93.8 °F 71.6 °F 58% 30.14 in 10.0 mi SW 6.9 mph - N/A   Clear
1:35 PM 87.8 °F 92.6 °F 69.8 °F 55% 30.13 in 10.0 mi SW 9.2 mph - N/A   Clear
1:55 PM 87.8 °F 92.6 °F 69.8 °F 55% 30.13 in 10.0 mi South 8.1 mph - N/A   Clear
2:15 PM 87.8 °F 92.6 °F 69.8 °F 55% 30.13 in 10.0 mi SSW 6.9 mph - N/A   Clear
2:35 PM 89.6 °F 94.7 °F 69.8 °F 52% 30.11 in 10.0 mi South 4.6 mph - N/A   Clear
2:55 PM 89.6 °F 94.7 °F 69.8 °F 52% 30.10 in 10.0 mi SW 8.1 mph - N/A   Clear
3:15 PM 87.8 °F 92.6 °F 69.8 °F 55% 30.10 in 10.0 mi SSW 3.5 mph - N/A   Clear
3:35 PM 87.8 °F 92.6 °F 69.8 °F 55% 30.10 in 10.0 mi SW 5.8 mph - N/A   Clear
3:55 PM 87.8 °F 93.8 °F 71.6 °F 58% 30.09 in 10.0 mi Calm Calm - N/A   Clear
4:15 PM 89.6 °F 94.7 °F 69.8 °F 52% 30.08 in 10.0 mi SSW 5.8 mph - N/A   Clear
4:35 PM 89.6 °F 94.7 °F 69.8 °F 52% 30.08 in 10.0 mi South 6.9 mph - N/A   Clear
4:55 PM 87.8 °F 93.8 °F 71.6 °F 58% 30.08 in 10.0 mi South 8.1 mph - N/A   Clear
5:15 PM 87.8 °F 93.8 °F 71.6 °F 58% 30.08 in 10.0 mi SSE 3.5 mph - N/A   Clear
5:35 PM 89.6 °F 96.2 °F 71.6 °F 55% 30.08 in 10.0 mi South 8.1 mph - N/A   Clear
5:55 PM 87.8 °F 95.6 °F 73.4 °F 62% 30.08 in 10.0 mi South 8.1 mph - N/A   Scattered Clouds
6:15 PM 86.0 °F 91.8 °F 71.6 °F 62% 30.08 in 10.0 mi South 6.9 mph - N/A   Scattered Clouds
6:35 PM 86.0 °F 91.8 °F 71.6 °F 62% 30.07 in 10.0 mi South 4.6 mph - N/A   Clear
6:55 PM 86.0 °F 91.8 °F 71.6 °F 62% 30.08 in 10.0 mi SSW 6.9 mph - N/A   Clear
7:15 PM 84.2 °F 89.6 °F 71.6 °F 66% 30.07 in 10.0 mi South 3.5 mph - N/A   Clear
7:35 PM 84.2 °F 90.9 °F 73.4 °F 70% 30.08 in 10.0 mi South 4.6 mph - N/A   Mostly Cloudy
7:55 PM 82.4 °F 88.2 °F 73.4 °F 74% 30.08 in 10.0 mi SSW 8.1 mph - N/A   Scattered Clouds
8:35 PM 82.4 °F 88.2 °F 73.4 °F 74% 30.08 in 10.0 mi SSW 4.6 mph - N/A   Clear
8:55 PM 80.6 °F 85.4 °F 73.4 °F 79% 30.09 in 10.0 mi SSW 5.8 mph - N/A   Clear
9:15 PM 80.6 °F 85.4 °F 73.4 °F 79% 30.10 in 10.0 mi SSW 5.8 mph - N/A   Clear
9:35 PM 80.6 °F 85.4 °F 73.4 °F 79% 30.10 in 10.0 mi SSW 4.6 mph - N/A   Clear
9:55 PM 80.6 °F 85.4 °F 73.4 °F 79% 30.11 in 10.0 mi SSW 8.1 mph - N/A   Clear
10:15 PM 80.6 °F 85.4 °F 73.4 °F 79% 30.11 in 10.0 mi SSW 4.6 mph - N/A   Clear
10:35 PM 80.6 °F 85.4 °F 73.4 °F 79% 30.12 in 10.0 mi SSW 4.6 mph - N/A   Clear
11:35 PM 78.8 °F - 73.4 °F 83% 30.12 in 10.0 mi SSW 6.9 mph - N/A   Clear
11:55 PM 78.8 °F - 73.4 °F 83% 30.12 in 10.0 mi SSW 4.6 mph - N/A   Clear